WC4PEM-15 Weather Reports


Display with metric or nautical units.
time (UTC)temp
F
wind
direction
speed
MPH
gust
MPH
rain 1hr
in
rain 24hr
in
rain mn
in
humidity
%
barometer
mb
20260504130506 72 73 6.0 11.0 0.00 0.00 0.00 74 1016.7
20260504110506 63 51 3.0 6.0 0.00 0.00 0.00 89 1015.5
20260504110328 63 205 3.0 8.0 0.00 0.00 0.00 88 1015.7
20260504100506 64 342 3.0 6.0 0.00 0.00 0.00 87 1015.2
20260504082007 66 72 3.0 6.0 0.00 0.00 0.00 84 1015.2
20260504081954 66 61 3.0 5.0 0.00 0.00 0.00 84 1015.1
20260504081507 66 61 3.0 5.0 0.00 0.00 0.00 84 1015.1
20260504081007 66 329 3.0 6.0 0.00 0.00 0.00 84 1015.2
20260504080949 66 325 3.0 5.0 0.00 0.00 0.00 85 1015.2
20260504080507 66 325 3.0 5.0 0.00 0.00 0.00 85 1015.2
20260504060229 66 73 4.0 9.0 0.00 0.00 0.00 83 1015.7
20260504050507 66 38 2.0 8.0 0.00 0.00 0.00 84 1016.6
20260504050007 66 93 2.0 6.0 0.00 0.00 0.00 84 1016.6
20260504045507 66 120 2.0 4.0 0.00 0.00 0.00 84 1016.9
20260504045007 66 68 2.0 5.0 0.00 0.00 0.00 84 1017.0
20260504044938 66 334 2.0 5.0 0.00 0.00 0.00 85 1016.9
20260504044507 66 334 2.0 5.0 0.00 0.00 0.00 85 1016.9
20260504044007 66 334 2.0 5.0 0.00 0.00 0.00 85 1017.0
20260504043939 66 88 2.0 5.0 0.00 0.00 0.00 85 1017.2
20260504043507 66 88 2.0 5.0 0.00 0.00 0.00 85 1017.2
20260504043350 66 9 2.0 5.0 0.00 0.00 0.00 84 1017.0
20260504043007 66 9 2.0 5.0 0.00 0.00 0.00 84 1017.0
20260504042507 66 31 2.0 5.0 0.00 0.00 0.00 84 1017.1
20260504042007 66 9 2.0 5.0 0.00 0.00 0.00 84 1017.1
20260504041507 67 340 2.0 3.0 0.00 0.00 0.00 84 1017.1
20260504041222 67 80 2.0 5.0 0.00 0.00 0.00 83 1017.1
20260504041007 67 80 2.0 5.0 0.00 0.00 0.00 83 1017.1
20260504040914 67 77 2.0 4.0 0.00 0.00 0.00 83 1017.1
20260504040507 67 88 2.0 5.0 0.00 0.00 0.00 83 1017.0
20260504040148 67 105 2.0 3.0 0.00 0.00 0.00 83 1017.2
20260504040055 67 292 2.0 4.0 0.00 0.00 0.00 83 1017.2
20260504040007 67 77 2.0 4.0 0.00 0.00 0.00 83 1017.1
20260504035507 67 105 2.0 3.0 0.00 0.00 0.00 83 1017.2
20260504035227 67 330 2.0 3.0 0.00 0.00 0.00 83 1017.2
20260504035007 67 292 2.0 4.0 0.00 0.00 0.00 83 1017.2
20260504034507 67 330 2.0 3.0 0.00 0.00 0.00 83 1017.2
20260504034140 67 51 2.0 5.0 0.00 0.00 0.00 82 1017.1
20260504034007 67 68 2.0 4.0 0.00 0.00 0.00 82 1017.1
20260504033950 68 120 2.0 4.0 0.00 0.00 0.00 82 1017.1
20260504033507 67 51 2.0 5.0 0.00 0.00 0.00 82 1017.1
20260504033007 68 120 2.0 4.0 0.00 0.00 0.00 82 1017.1
20260504032732 68 93 2.0 5.0 0.00 0.00 0.00 81 1017.2
20260504032508 68 330 2.0 4.0 0.00 0.00 0.00 81 1017.1
20260504032014 68 9 2.0 4.0 0.00 0.00 0.00 81 1017.4
20260504032008 68 93 2.0 5.0 0.00 0.00 0.00 81 1017.2
20260504031508 68 9 2.0 4.0 0.00 0.00 0.00 81 1017.4
20260504031008 68 65 3.0 4.0 0.00 0.00 0.00 81 1017.2
20260504030508 68 120 3.0 5.0 0.00 0.00 0.00 81 1017.1
20260504030316 68 74 3.0 5.0 0.00 0.00 0.00 81 1017.2
20260504030008 68 68 3.0 5.0 0.00 0.00 0.00 81 1017.0
20260504025508 68 74 3.0 5.0 0.00 0.00 0.00 81 1017.2
20260504025008 68 309 4.0 8.0 0.00 0.00 0.00 81 1017.1
20260504024508 68 63 4.0 9.0 0.00 0.00 0.00 81 1016.9
20260504024138 68 80 4.0 6.0 0.00 0.00 0.00 81 1017.2
20260504024008 68 61 4.0 6.0 0.00 0.00 0.00 81 1017.1
20260504023508 68 80 4.0 6.0 0.00 0.00 0.00 81 1017.2
20260504023008 68 66 4.0 5.0 0.00 0.00 0.00 81 1017.0
20260504022508 68 76 4.0 7.0 0.00 0.00 0.00 81 1016.9
20260504022008 68 75 4.0 7.0 0.00 0.00 0.00 80 1017.0
20260504022001 69 75 4.0 7.0 0.00 0.00 0.00 80 1016.9
20260504021508 69 75 4.0 7.0 0.00 0.00 0.00 80 1016.9
20260504021339 69 56 4.0 6.0 0.00 0.00 0.00 80 1016.9
20260504021011 69 64 4.0 7.0 0.00 0.00 0.00 80 1016.9
20260504021008 69 56 4.0 6.0 0.00 0.00 0.00 80 1016.9
20260504020920 69 49 4.0 7.0 0.00 0.00 0.00 79 1016.9
20260504020508 69 64 4.0 7.0 0.00 0.00 0.00 80 1016.9
20260504020008 69 49 4.0 7.0 0.00 0.00 0.00 79 1016.9
20260504015605 69 75 5.0 8.0 0.00 0.00 0.00 78 1016.7
20260504015508 69 61 4.0 7.0 0.00 0.00 0.00 79 1016.7
20260504015008 69 78 4.0 7.0 0.00 0.00 0.00 79 1016.7
20260504014508 69 78 4.0 7.0 0.00 0.00 0.00 79 1016.7
20260504014147 69 66 5.0 8.0 0.00 0.00 0.00 78 1016.6
20260504014008 69 75 5.0 8.0 0.00 0.00 0.00 78 1016.7
20260504013508 69 66 5.0 8.0 0.00 0.00 0.00 78 1016.6
20260504013315 69 75 5.0 8.0 0.00 0.00 0.00 78 1016.7
20260504013008 69 75 5.0 8.0 0.00 0.00 0.00 78 1016.7
20260504012508 70 55 5.0 9.0 0.00 0.00 0.00 77 1016.7
20260504012008 70 68 5.0 9.0 0.00 0.00 0.00 77 1016.7
20260504011508 70 32 6.0 9.0 0.00 0.00 0.00 77 1016.5
20260504011141 70 76 6.0 10.0 0.00 0.00 0.00 77 1016.5
20260504011008 70 67 6.0 9.0 0.00 0.00 0.00 77 1016.4
20260504010508 70 76 6.0 10.0 0.00 0.00 0.00 77 1016.5
20260504010012 70 71 6.0 9.0 0.00 0.00 0.00 76 1016.1
20260504010008 70 68 6.0 10.0 0.00 0.00 0.00 76 1016.3
20260504005508 70 71 6.0 9.0 0.00 0.00 0.00 76 1016.1
20260504005138 70 83 7.0 11.0 0.00 0.00 0.00 75 1016.0
20260504005057 71 78 7.0 13.0 0.00 0.00 0.00 74 1015.9
20260504005008 70 69 7.0 12.0 0.00 0.00 0.00 76 1015.9
20260504004508 70 83 7.0 11.0 0.00 0.00 0.00 75 1016.0
20260504004503 70 11 7.0 11.0 0.00 0.00 0.00 75 1016.0
20260504004008 70 11 7.0 11.0 0.00 0.00 0.00 75 1016.0
20260504003508 71 73 7.0 10.0 0.00 0.00 0.00 75 1015.8
20260504003008 71 63 7.0 11.0 0.00 0.00 0.00 74 1015.9
20260504002607 71 72 6.0 11.0 0.00 0.00 0.00 74 1015.9
20260504002508 71 78 7.0 13.0 0.00 0.00 0.00 74 1015.9
20260504002437 71 78 7.0 11.0 0.00 0.00 0.00 73 1015.8
20260504002012 71 67 6.0 9.0 0.00 0.00 0.00 74 1015.8
20260504002008 71 72 6.0 11.0 0.00 0.00 0.00 74 1015.9
20260504001508 71 67 6.0 9.0 0.00 0.00 0.00 74 1015.8
20260504001008 71 78 7.0 11.0 0.00 0.00 0.00 73 1015.8
20260504000508 71 59 8.0 13.0 0.00 0.00 0.00 73 1015.8
20260504000008 72 80 8.0 11.0 0.00 0.00 0.00 73 1015.7
20260503235508 72 67 8.0 15.0 0.00 0.00 0.00 72 1015.5
20260503235013 72 67 8.0 15.0 0.00 0.00 0.00 72 1015.6
20260503235008 72 84 8.0 11.0 0.00 0.00 0.00 72 1015.6
20260503234508 72 67 8.0 15.0 0.00 0.00 0.00 72 1015.6
20260503234346 72 81 9.0 13.0 0.00 0.00 0.00 72 1015.5
20260503234008 72 78 9.0 14.0 0.00 0.00 0.00 72 1015.5
20260503233508 72 78 9.0 14.0 0.00 0.00 0.00 72 1015.5
20260503233008 72 68 8.0 13.0 0.00 0.00 0.00 72 1015.5
20260503232508 72 82 8.0 12.0 0.00 0.00 0.00 72 1015.6
20260503232418 72 64 9.0 14.0 0.00 0.00 0.00 71 1015.5
20260503232008 72 64 9.0 14.0 0.00 0.00 0.00 71 1015.5
20260503232001 73 69 8.0 13.0 0.00 0.00 0.00 71 1015.5
20260503231508 73 69 8.0 13.0 0.00 0.00 0.00 71 1015.5
20260503231332 73 72 7.0 11.0 0.00 0.00 0.00 72 1015.4
20260503231008 73 72 7.0 11.0 0.00 0.00 0.00 72 1015.4
20260503230636 73 79 9.0 16.0 0.00 0.00 0.00 71 1015.5
20260503230508 73 78 8.0 13.0 0.00 0.00 0.00 72 1015.4
20260503230142 73 71 10.0 13.0 0.00 0.00 0.00 71 1015.4
20260503230008 73 79 9.0 16.0 0.00 0.00 0.00 71 1015.5
20260503225508 73 71 10.0 13.0 0.00 0.00 0.00 71 1015.4
20260503225013 73 77 9.0 17.0 0.00 0.00 0.00 71 1015.5
20260503225008 73 71 10.0 15.0 0.00 0.00 0.00 71 1015.4
20260503224508 73 77 9.0 17.0 0.00 0.00 0.00 71 1015.5
20260503224138 74 82 10.0 16.0 0.00 0.00 0.00 70 1015.4
20260503224008 73 67 9.0 14.0 0.00 0.00 0.00 71 1015.6
20260503223508 74 82 10.0 16.0 0.00 0.00 0.00 70 1015.4
20260503223008 74 74 9.0 15.0 0.00 0.00 0.00 70 1015.3
20260503222508 74 84 9.0 15.0 0.00 0.00 0.00 71 1015.3
20260503222104 74 82 8.0 14.0 0.00 0.00 0.00 71 1015.3
20260503222008 74 80 9.0 18.0 0.00 0.00 0.00 71 1015.4
20260503221508 74 82 8.0 14.0 0.00 0.00 0.00 71 1015.3
20260503221326 74 65 9.0 14.0 0.00 0.00 0.00 71 1015.3
20260503221014 74 68 9.0 13.0 0.00 0.00 0.00 71 1015.4
20260503221008 74 65 9.0 14.0 0.00 0.00 0.00 71 1015.3
20260503220508 74 68 9.0 13.0 0.00 0.00 0.00 71 1015.4
20260503220013 74 80 11.0 15.0 0.00 0.00 0.00 70 1015.2
20260503220008 74 80 10.0 15.0 0.00 0.00 0.00 70 1015.5
20260503215508 74 80 11.0 15.0 0.00 0.00 0.00 70 1015.2
20260503215338 74 74 12.0 17.0 0.00 0.00 0.00 70 1015.3
20260503215008 74 74 12.0 17.0 0.00 0.00 0.00 70 1015.3
20260503214509 74 107 10.0 17.0 0.00 0.00 0.00 69 1015.2
20260503214009 75 74 7.0 13.0 0.00 0.00 0.00 70 1015.2
20260503213940 75 72 7.0 12.0 0.00 0.00 0.00 70 1015.1
20260503213509 75 72 7.0 12.0 0.00 0.00 0.00 70 1015.1
20260503213220 75 78 8.0 11.0 0.00 0.00 0.00 70 1015.2
20260503213009 75 78 8.0 11.0 0.00 0.00 0.00 70 1015.2
20260503212855 75 63 7.0 13.0 0.00 0.00 0.00 69 1015.2
20260503212509 75 63 7.0 13.0 0.00 0.00 0.00 69 1015.2
20260503212009 75 64 7.0 13.0 0.00 0.00 0.00 69 1015.3
20260503211648 75 70 8.0 11.0 0.00 0.00 0.00 68 1015.1
20260503211509 75 70 8.0 11.0 0.00 0.00 0.00 68 1015.1
20260503211115 75 71 8.0 14.0 0.00 0.00 0.00 68 1015.2
20260503211009 75 71 8.0 14.0 0.00 0.00 0.00 68 1015.2
20260503210649 75 69 7.0 15.0 0.00 0.00 0.00 68 1015.2
20260503210509 75 69 7.0 15.0 0.00 0.00 0.00 68 1015.2
20260503210055 75 294 7.0 11.0 0.00 0.00 0.00 68 1015.3
20260503210009 75 294 7.0 11.0 0.00 0.00 0.00 68 1015.3
20260503205729 75 66 8.0 15.0 0.00 0.00 0.00 67 1015.2
20260503205657 75 66 8.0 15.0 0.00 0.00 0.00 67 1015.2
20260503205509 75 66 8.0 15.0 0.00 0.00 0.00 67 1015.2
20260503205228 76 55 7.0 12.0 0.00 0.00 0.00 67 1015.3
20260503205009 76 55 7.0 12.0 0.00 0.00 0.00 67 1015.3
20260503204636 76 71 7.0 12.0 0.00 0.00 0.00 66 1015.3
20260503204509 76 77 7.0 12.0 0.00 0.00 0.00 66 1015.3
20260503204009 76 71 7.0 12.0 0.00 0.00 0.00 66 1015.3
20260503203637 76 90 7.0 12.0 0.00 0.00 0.00 64 1015.3
20260503203509 76 81 7.0 11.0 0.00 0.00 0.00 66 1015.3
20260503203009 76 90 7.0 12.0 0.00 0.00 0.00 64 1015.3
20260503202941 77 67 6.0 12.0 0.00 0.00 0.00 65 1015.4
20260503202602 77 79 6.0 12.0 0.00 0.00 0.00 64 1015.5
20260503202509 77 67 6.0 12.0 0.00 0.00 0.00 65 1015.4
20260503202147 77 51 7.0 11.0 0.00 0.00 0.00 65 1015.4
20260503202009 77 79 6.0 12.0 0.00 0.00 0.00 64 1015.5
20260503201509 77 51 7.0 11.0 0.00 0.00 0.00 65 1015.4
20260503201347 77 71 8.0 13.0 0.00 0.00 0.00 65 1015.5
20260503201009 77 71 8.0 13.0 0.00 0.00 0.00 65 1015.5
20260503200509 77 63 9.0 12.0 0.00 0.00 0.00 64 1015.6
20260503200442 78 72 8.0 14.0 0.00 0.00 0.00 64 1015.8
20260503200136 78 73 7.0 17.0 0.00 0.00 0.00 65 1015.8
20260503200009 78 72 8.0 14.0 0.00 0.00 0.00 64 1015.8
20260503195509 78 73 7.0 17.0 0.00 0.00 0.00 65 1015.8
20260503195009 77 340 8.0 15.0 0.00 0.00 0.00 65 1015.6
20260503194509 77 52 8.0 15.0 0.00 0.00 0.00 66 1015.7
20260503194346 77 84 8.0 13.0 0.00 0.00 0.00 65 1016.0
20260503194009 77 84 8.0 13.0 0.00 0.00 0.00 65 1016.0
20260503193509 77 69 8.0 14.0 0.00 0.00 0.00 65 1016.2
20260503193009 77 72 7.0 14.0 0.00 0.00 0.00 65 1016.1
20260503192756 77 61 8.0 16.0 0.00 0.00 0.00 66 1016.1
20260503192544 77 70 8.0 14.0 0.00 0.00 0.00 66 1016.3
20260503192509 77 61 8.0 16.0 0.00 0.00 0.00 66 1016.1
20260503192316 77 70 8.0 14.0 0.00 0.00 0.00 66 1016.3
20260503192009 77 70 8.0 14.0 0.00 0.00 0.00 66 1016.3
20260503191811 77 69 9.0 15.0 0.00 0.00 0.00 66 1016.4
20260503191509 77 69 9.0 15.0 0.00 0.00 0.00 66 1016.4
20260503191009 77 83 10.0 21.0 0.00 0.00 0.00 66 1016.4
20260503190939 77 68 9.0 14.0 0.00 0.00 0.00 67 1016.5
20260503190509 77 68 9.0 14.0 0.00 0.00 0.00 67 1016.5
20260503190009 76 76 7.0 14.0 0.00 0.00 0.00 66 1016.7
20260503185509 76 273 8.0 11.0 0.00 0.00 0.00 68 1016.7
20260503185009 76 9 9.0 15.0 0.00 0.00 0.00 68 1016.7
20260503184805 76 75 9.0 16.0 0.00 0.00 0.00 69 1016.9
20260503184509 76 75 9.0 16.0 0.00 0.00 0.00 69 1016.9
20260503184438 76 70 9.0 14.0 0.00 0.00 0.00 68 1017.0
20260503184009 76 70 9.0 14.0 0.00 0.00 0.00 68 1017.0
20260503183938 76 71 8.0 14.0 0.00 0.00 0.00 69 1017.0
20260503183509 76 71 8.0 14.0 0.00 0.00 0.00 69 1017.0
20260503183332 76 86 8.0 19.0 0.00 0.00 0.00 69 1017.1
20260503183009 76 86 8.0 19.0 0.00 0.00 0.00 69 1017.1
20260503182810 75 61 7.0 13.0 0.00 0.00 0.00 70 1017.0
20260503182509 75 61 7.0 13.0 0.00 0.00 0.00 70 1017.0
20260503182139 75 69 7.0 13.0 0.00 0.00 0.00 70 1017.3
20260503182106 75 69 7.0 13.0 0.00 0.00 0.00 70 1017.3
20260503182009 75 69 7.0 13.0 0.00 0.00 0.00 70 1017.3
20260503181630 75 56 8.0 16.0 0.00 0.00 0.00 71 1017.4
20260503181509 75 56 8.0 16.0 0.00 0.00 0.00 71 1017.4
20260503181304 74 59 8.0 14.0 0.00 0.00 0.00 71 1017.4
20260503181215 74 59 8.0 14.0 0.00 0.00 0.00 71 1017.4
20260503181009 74 59 8.0 14.0 0.00 0.00 0.00 71 1017.4
20260503180729 74 64 7.0 17.0 0.00 0.00 0.00 72 1017.5
20260503180509 74 64 7.0 17.0 0.00 0.00 0.00 72 1017.5
20260503180133 74 61 8.0 18.0 0.00 0.00 0.00 73 1017.6
20260503180055 74 79 8.0 11.0 0.00 0.00 0.00 73 1017.5
20260503180009 74 79 8.0 11.0 0.00 0.00 0.00 73 1017.5
20260503175732 74 61 8.0 18.0 0.00 0.00 0.00 73 1017.6
20260503175509 74 61 8.0 18.0 0.00 0.00 0.00 73 1017.6
20260503175152 73 127 8.0 13.0 0.00 0.00 0.00 74 1017.6
20260503175009 73 127 8.0 13.0 0.00 0.00 0.00 74 1017.6
20260503174841 73 74 9.0 13.0 0.00 0.00 0.00 75 1017.7
20260503174822 72 67 6.0 12.0 0.00 0.00 0.00 75 1017.7
20260503174509 73 74 9.0 13.0 0.00 0.00 0.00 75 1017.7
20260503174009 73 66 7.0 13.0 0.00 0.00 0.00 75 1017.7
20260503173815 72 63 5.0 14.0 0.00 0.00 0.00 76 1017.8
20260503173512 72 67 6.0 12.0 0.00 0.00 0.00 75 1017.7
20260503173509 72 63 5.0 14.0 0.00 0.00 0.00 76 1017.8
20260503173009 72 67 6.0 12.0 0.00 0.00 0.00 75 1017.7
20260503172908 72 22 7.0 13.0 0.00 0.00 0.00 76 1017.8
20260503172520 72 71 8.0 14.0 0.00 0.00 0.00 76 1017.7
20260503172509 72 22 7.0 13.0 0.00 0.00 0.00 76 1017.8
20260503172439 72 71 8.0 14.0 0.00 0.00 0.00 76 1017.7
20260503172012 72 76 8.0 16.0 0.00 0.00 0.00 76 1017.8
20260503172009 72 71 8.0 14.0 0.00 0.00 0.00 76 1017.7
20260503171509 72 76 8.0 16.0 0.00 0.00 0.00 76 1017.8
20260503171148 72 66 7.0 13.0 0.00 0.00 0.00 76 1017.6
20260503171023 72 74 7.0 13.0 0.00 0.00 0.00 77 1017.7
20260503171009 72 66 7.0 13.0 0.00 0.00 0.00 76 1017.6
20260503170509 72 74 7.0 13.0 0.00 0.00 0.00 77 1017.7
20260503170340 71 59 8.0 14.0 0.00 0.00 0.00 76 1017.8
20260503151010 67 67 5.0 9.0 0.00 0.00 0.00 87 1018.3
20260503150816 66 344 5.0 13.0 0.00 0.00 0.00 87 1018.3
20260503150510 66 344 5.0 13.0 0.00 0.00 0.00 87 1018.3